EW4725 Weather Reports


time (UTC)temp
F
wind
direction
speed
knots
gust
knots
rain 1hr
in
rain 24hr
in
rain mn
in
humidity
%
barometer
mb
20260505173117 65 283 7.0 9.6 0.00 0.41 0.10 63 1014.7
20260505172617 65 283 4.3 7.0 0.00 0.41 0.10 62 1014.7
20260505172117 64 260 4.3 6.1 0.00 0.41 0.10 63 1014.7
20260505171637 64 260 4.3 6.1 0.00 0.41 0.10 64 1014.6
20260505171117 64 260 3.5 11.3 0.00 0.41 0.10 65 1014.6
20260505170617 64 260 3.5 6.1 0.00 0.41 0.10 67 1014.6
20260505170117 63 260 2.6 4.3 0.00 0.41 0.10 71 1014.6
20260505165617 63 260 5.2 8.7 0.00 0.41 0.10 69 1014.5
20260505165135 64 260 5.2 7.8 0.00 0.41 0.10 70 1014.5
20260505164657 63 283 4.3 7.0 0.00 0.41 0.10 69 1014.4
20260505164117 63 283 3.5 6.1 0.00 0.41 0.10 70 1014.4
20260505163617 63 260 5.2 7.8 0.00 0.41 0.10 70 1014.4
20260505163117 63 260 4.3 7.0 0.00 0.41 0.10 71 1014.3
20260505162617 63 260 2.6 3.5 0.00 0.41 0.10 72 1014.2
20260505162117 62 260 3.5 6.1 0.00 0.41 0.10 72 1014.2
20260505161617 62 260 2.6 4.3 0.00 0.41 0.10 73 1014.2
20260505161117 62 260 3.5 6.1 0.00 0.41 0.10 76 1014.1
20260505160617 61 238 5.2 9.6 0.00 0.41 0.10 76 1014.1
20260505160117 61 215 2.6 4.3 0.00 0.41 0.10 81 1014.0
20260505153117 58 260 2.6 5.2 0.00 0.41 0.10 98 1014.1
20260505152617 57 305 2.6 4.3 0.00 0.41 0.10 98 1014.0
20260505152137 57 260 3.5 6.1 0.00 0.41 0.10 98 1014.0
20260505151617 57 283 2.6 5.2 0.00 0.41 0.10 98 1014.0
20260505151117 56 260 2.6 3.5 0.00 0.41 0.10 98 1014.0
20260505150617 56 260 2.6 4.3 0.00 0.41 0.10 98 1014.0
20260505150117 56 283 2.6 3.5 0.00 0.41 0.10 98 1014.0
20260505140617 54 0.0 1.7 0.00 0.41 0.10 98 1013.6
20260505140136 54 283 0.9 2.6 0.00 0.41 0.10 98 1013.7
20260505130116 54 0.0 0.0 0.00 0.41 0.10 98 1013.6
20260505124616 54 283 0.9 0.9 0.00 0.41 0.10 98 1013.5
20260505124116 54 283 0.9 0.9 0.00 0.41 0.10 98 1013.5
20260505123617 54 0.0 0.0 0.00 0.41 0.10 98 1013.5
20260505123117 54 0.0 0.0 0.00 0.41 0.10 98 1013.5
20260505122617 54 0.0 0.0 0.00 0.41 0.10 98 1013.4
20260505122116 54 0.0 0.0 0.00 0.41 0.10 98 1013.4
20260505121616 54 0.0 0.0 0.00 0.41 0.10 98 1013.3
20260505121116 54 0.0 0.0 0.00 0.41 0.10 98 1013.3
20260505120616 54 0.0 0.0 0.00 0.41 0.10 98 1013.3
20260505120116 53 0.0 0.0 0.00 0.41 0.10 98 1013.4
20260505115616 54 0.0 0.0 0.00 0.41 0.10 98 1013.4
20260505115116 54 0.0 0.0 0.00 0.41 0.10 98 1013.4
20260505114616 54 0.0 0.0 0.00 0.41 0.10 98 1013.4
20260505114116 54 0.0 0.0 0.00 0.41 0.10 98 1013.4
20260505113617 54 0.0 0.0 0.02 0.41 0.10 98 1013.4
20260505113116 54 0.0 0.0 0.02 0.41 0.10 98 1013.4
20260505112616 54 0.0 0.0 0.02 0.41 0.10 98 1013.4
20260505112116 54 0.0 0.9 0.02 0.41 0.10 98 1013.5
20260505111617 54 58 0.9 2.6 0.02 0.41 0.10 98 1013.5
20260505111136 54 0.0 0.9 0.02 0.41 0.10 98 1013.5
20260505110617 54 35 0.9 0.9 0.02 0.41 0.10 98 1013.6
20260505110116 54 0.0 0.0 0.02 0.41 0.10 98 1013.5
20260505102137 55 0.0 0.0 0.02 0.39 0.08 98 1013.5
20260505101616 55 0.0 0.0 0.02 0.39 0.08 98 1013.5
20260505101116 55 0.0 0.0 0.02 0.39 0.08 98 1013.5
20260505100616 55 0.0 0.9 0.02 0.39 0.08 98 1013.4
20260505100116 55 0.0 0.0 0.02 0.39 0.08 98 1013.5
20260505095616 56 0.0 0.0 0.02 0.39 0.08 98 1013.5
20260505095136 56 0.0 0.0 0.02 0.39 0.08 98 1013.5
20260505094616 56 0.0 0.0 0.02 0.39 0.08 98 1013.6
20260505094116 56 0.0 0.0 0.01 0.38 0.07 98 1013.7
20260505093616 55 0.0 0.9 0.00 0.37 0.06 98 1013.8
20260505093116 55 148 0.9 1.7 0.00 0.37 0.06 98 1013.8
20260505092616 55 0.0 0.9 0.00 0.37 0.06 98 1013.8
20260505092116 56 148 1.7 2.6 0.00 0.37 0.06 98 1014.0
20260505091616 55 0.0 0.0 0.00 0.37 0.06 98 1014.0
20260505091116 55 170 1.7 2.6 0.00 0.37 0.06 98 1014.1
20260505090616 55 170 0.9 1.7 0.00 0.37 0.06 98 1014.1
20260505090116 55 148 0.9 1.7 0.00 0.37 0.06 98 1014.2
20260505085616 55 148 0.9 0.9 0.00 0.37 0.06 98 1014.1
20260505085116 55 148 1.7 1.7 0.00 0.37 0.06 97 1014.2
20260505084616 55 125 1.7 1.7 0.00 0.37 0.06 97 1014.2
20260505084116 55 148 0.9 1.7 0.01 0.37 0.06 97 1014.2
20260505083616 55 125 0.9 0.9 0.02 0.37 0.06 97 1014.2
20260505083116 55 125 0.9 1.7 0.04 0.37 0.06 97 1014.3
20260505082616 55 125 0.9 1.7 0.04 0.37 0.06 97 1014.3
20260505082136 55 148 2.6 4.3 0.04 0.37 0.06 97 1014.4
20260505081616 55 125 2.6 3.5 0.05 0.37 0.06 97 1014.5
20260505081116 55 125 1.7 2.6 0.05 0.37 0.06 97 1014.5
20260505080616 55 125 1.7 2.6 0.05 0.37 0.06 97 1014.5
20260505080116 56 148 0.9 2.6 0.05 0.37 0.06 97 1014.6
20260505075636 56 148 0.9 0.9 0.06 0.37 0.06 97 1014.5
20260505075116 56 125 1.7 2.6 0.08 0.37 0.06 97 1014.5
20260505074616 55 125 3.5 4.3 0.11 0.37 0.06 97 1014.6
20260505074156 55 125 1.7 3.5 0.11 0.36 0.05 97 1014.7
20260505073630 55 148 2.6 3.5 0.10 0.35 0.04 97 1014.9
20260505073610 55 125 1.7 2.6 0.11 0.33 0.02 97 1014.8
20260505072856 55 148 1.7 4.3 0.11 0.33 0.02 97 1014.8
20260505072336 55 103 1.7 2.6 0.13 0.33 0.02 97 1014.8
20260505071816 55 125 1.7 1.7 0.15 0.33 0.02 97 1014.8
20260505071336 56 125 0.9 1.7 0.15 0.32 0.01 97 1014.8
20260505070836 56 125 2.6 3.5 0.16 0.32 0.01 97 1014.8
20260505070316 55 0.0 0.9 0.20 0.32 0.01 97 1014.8
20260505065836 55 0.0 0.9 0.22 0.31 0.31 97 1014.8
20260505065316 55 0.0 0.9 0.22 0.30 0.30 97 1014.8
20260505064816 55 0.0 0.9 0.21 0.28 0.28 97 1014.8
20260505064317 56 103 0.9 1.7 0.20 0.26 0.26 97 1014.9
20260505063816 56 0.0 0.9 0.20 0.25 0.25 97 1014.8
20260505063316 56 148 1.7 2.6 0.18 0.23 0.23 97 1014.8
20260505062817 56 148 1.7 1.7 0.17 0.22 0.22 97 1014.8
20260505062316 56 148 1.7 2.6 0.16 0.20 0.20 97 1014.8
20260505061816 56 125 1.7 1.7 0.15 0.18 0.18 97 1014.7
20260505061316 56 125 1.7 1.7 0.14 0.17 0.17 97 1014.8
20260505060816 56 125 1.7 1.7 0.13 0.16 0.16 97 1014.8
20260505060316 56 0.0 0.9 0.09 0.12 0.12 97 1014.9
20260505055816 56 125 1.7 1.7 0.06 0.09 0.09 97 1014.9
20260505055437 56 148 0.9 1.7 0.05 0.08 0.08 97 1014.8
20260505054816 56 148 0.9 0.9 0.04 0.07 0.07 97 1014.9
20260505054316 56 0.0 0.9 0.03 0.06 0.06 97 1014.8
20260505053816 56 148 1.7 2.6 0.02 0.05 0.05 97 1014.9
20260505053316 56 125 1.7 2.6 0.02 0.05 0.05 97 1014.9
20260505052816 56 148 0.9 1.7 0.02 0.05 0.05 97 1014.9
20260505052316 56 170 0.9 1.7 0.01 0.04 0.04 97 1014.9
20260505051816 56 170 1.7 2.6 0.00 0.03 0.03 97 1014.9
20260505051316 57 125 0.9 1.7 0.00 0.03 0.03 97 1015.0
20260505050816 56 170 1.7 2.6 0.00 0.03 0.03 97 1015.0
20260505050316 57 0.0 0.0 0.00 0.03 0.03 97 1015.1
20260505041316 57 0.0 0.0 0.00 0.03 0.03 97 1015.2
20260505040816 57 0.0 0.0 0.00 0.03 0.03 97 1015.2
20260505040316 56 0.0 0.9 0.00 0.03 0.03 96 1015.1
20260505035816 56 238 0.9 0.9 0.00 0.03 0.03 96 1015.1
20260505035316 56 0.0 0.9 0.00 0.03 0.03 96 1015.0
20260505034816 56 0.0 0.9 0.00 0.03 0.03 96 1015.0
20260505034316 56 238 2.6 3.5 0.00 0.03 0.03 96 1014.9
20260505033816 56 0.0 0.9 0.00 0.03 0.03 96 1014.9
20260505033316 56 215 1.7 3.5 0.00 0.03 0.03 96 1014.9
20260505032816 56 193 1.7 2.6 0.00 0.03 0.03 96 1014.8
20260505032316 56 238 1.7 2.6 0.01 0.03 0.03 96 1014.7
20260505031836 56 238 1.7 3.5 0.02 0.03 0.03 96 1014.7
20260505031316 56 238 1.7 3.5 0.03 0.03 0.03 96 1014.7
20260505030816 56 215 2.6 4.3 0.03 0.03 0.03 95 1014.6
20260505030316 56 148 1.7 6.1 0.03 0.03 0.03 95 1014.7
20260505025816 57 238 2.6 5.2 0.03 0.03 0.03 95 1014.7
20260505025316 57 170 2.6 5.2 0.03 0.03 0.03 95 1014.7
20260505024816 57 238 0.9 2.6 0.03 0.03 0.03 95 1014.6
20260505024316 57 170 2.6 5.2 0.03 0.03 0.03 95 1014.6
20260505023816 57 170 0.9 1.7 0.03 0.03 0.03 94 1014.7
20260505023316 58 148 3.5 5.2 0.03 0.03 0.03 94 1014.7
20260505022816 58 170 2.6 4.3 0.03 0.03 0.03 92 1014.8
20260505022316 60 170 3.5 6.1 0.02 0.02 0.02 89 1014.8
20260505021816 61 148 3.5 6.1 0.01 0.01 0.01 81 1014.7
20260505021316 62 215 3.5 7.0 0.00 0.00 0.00 76 1014.6
20260505020816 62 238 3.5 7.0 0.00 0.00 0.00 73 1014.6
20260505020316 63 170 1.7 1.7 0.00 0.00 0.00 73 1014.5
20260505015816 63 283 0.9 0.9 0.00 0.00 0.00 71 1014.5
20260505015316 63 260 3.5 4.3 0.00 0.00 0.00 67 1014.5
20260505014816 63 260 4.3 6.1 0.00 0.00 0.00 66 1014.5
20260505014316 63 260 1.7 3.5 0.00 0.00 0.00 65 1014.4
20260505013856 63 260 5.2 7.8 0.00 0.00 0.00 66 1014.5
20260505013316 63 283 6.1 8.7 0.00 0.00 0.00 65 1014.5
20260505012816 63 283 3.5 7.0 0.00 0.00 0.00 67 1014.5
20260505012316 63 283 4.3 6.1 0.00 0.00 0.00 66 1014.4
20260505011856 63 283 6.1 7.0 0.00 0.00 0.00 67 1014.4
20260505011316 63 283 5.2 7.0 0.00 0.00 0.00 67 1014.5
20260505010816 63 260 5.2 7.8 0.00 0.00 0.00 67 1014.5
20260505010316 63 260 5.2 7.0 0.00 0.00 0.00 68 1014.6
20260505005816 63 283 5.2 7.0 0.00 0.00 0.00 67 1014.5
20260505005316 63 283 5.2 8.7 0.00 0.00 0.00 68 1014.6
20260505004816 64 260 7.0 9.6 0.00 0.00 0.00 68 1014.6
20260505004316 64 260 6.1 7.8 0.00 0.00 0.00 67 1014.7
20260505003816 64 283 7.0 9.6 0.00 0.00 0.00 67 1014.7
20260505003316 64 260 5.2 7.8 0.00 0.00 0.00 67 1014.7
20260505002836 64 260 4.3 5.2 0.00 0.00 0.00 68 1014.7
20260505002316 64 283 7.0 10.4 0.00 0.00 0.00 67 1014.8
20260505001816 64 260 7.0 8.7 0.00 0.00 0.00 66 1014.8
20260505001316 65 283 6.1 8.7 0.00 0.00 0.00 64 1014.8
20260505000816 65 283 6.1 7.8 0.00 0.00 0.00 65 1014.7
20260505000316 65 283 5.2 7.8 0.00 0.00 0.00 64 1014.7
20260504235816 64 260 8.7 13.0 0.00 0.00 0.00 62 1014.7
20260504235315 65 260 7.8 9.6 0.00 0.00 0.00 63 1014.7
20260504234815 65 283 5.2 7.8 0.00 0.00 0.00 63 1014.7
20260504234316 65 260 7.8 10.4 0.00 0.00 0.00 63 1014.5
20260504233836 65 260 7.0 10.4 0.00 0.00 0.00 63 1014.6
20260504233316 66 283 7.0 10.4 0.00 0.00 0.00 62 1014.5
20260504232816 65 260 6.1 8.7 0.00 0.00 0.00 63 1014.4
20260504232316 65 283 7.0 11.3 0.00 0.00 0.00 63 1014.5
20260504231815 66 283 7.0 12.2 0.00 0.00 0.00 62 1014.5
20260504231336 66 283 7.0 12.2 0.00 0.00 0.00 61 1014.5
20260504230816 66 283 9.6 14.8 0.00 0.00 0.00 61 1014.5
20260504230356 66 283 8.7 13.0 0.00 0.00 0.00 63 1014.5
20260504225815 66 283 5.2 10.4 0.00 0.00 0.00 64 1014.6
20260504225336 66 283 6.1 8.7 0.00 0.00 0.00 62 1014.7
20260504224815 66 283 6.1 9.6 0.00 0.00 0.00 63 1014.7
20260504224315 66 283 8.7 12.2 0.00 0.00 0.00 62 1014.9
20260504223815 66 283 7.8 10.4 0.00 0.00 0.00 63 1014.7
20260504223316 67 260 7.8 13.9 0.00 0.00 0.00 62 1014.8
20260504222815 67 283 8.7 13.0 0.00 0.00 0.00 61 1014.9
20260504222356 68 260 5.2 9.6 0.00 0.00 0.00 60 1014.8
20260504221815 67 260 7.8 13.9 0.00 0.00 0.00 60 1014.9
20260504221316 67 260 8.7 12.2 0.00 0.00 0.00 59 1014.9
20260504220816 67 260 8.7 13.0 0.00 0.00 0.00 58 1015.0
20260504220315 67 260 7.0 10.4 0.00 0.00 0.00 58 1015.0
20260504215815 67 283 5.2 8.7 0.00 0.00 0.00 59 1015.1
20260504215315 67 260 10.4 13.9 0.00 0.00 0.00 60 1015.1
20260504214836 67 260 7.0 12.2 0.00 0.00 0.00 60 1015.1
20260504214316 67 283 7.0 11.3 0.00 0.00 0.00 60 1015.2
20260504213816 68 260 5.2 7.8 0.00 0.00 0.00 58 1015.2
20260504213315 68 260 7.0 10.4 0.00 0.00 0.00 57 1015.2
20260504212816 68 260 6.1 11.3 0.00 0.00 0.00 58 1015.3
20260504212315 68 260 5.2 12.2 0.00 0.00 0.00 56 1015.3
20260504211816 68 238 5.2 7.8 0.00 0.00 0.00 55 1015.3
20260504211315 69 215 7.0 9.6 0.00 0.00 0.00 56 1015.4
20260504210816 69 283 6.1 9.6 0.00 0.00 0.00 56 1015.3
20260504210335 69 260 4.3 7.8 0.00 0.00 0.00 57 1015.3
20260504205815 68 283 7.0 11.3 0.00 0.00 0.00 57 1015.2
20260504205315 68 283 7.8 12.2 0.00 0.00 0.00 57 1015.2
20260504204816 68 260 5.2 8.7 0.00 0.00 0.00 58 1015.3
20260504204315 68 283 6.1 11.3 0.00 0.00 0.00 57 1015.3
20260504203815 68 283 7.0 10.4 0.00 0.00 0.00 56 1015.3
20260504203315 68 260 5.2 7.8 0.00 0.00 0.00 55 1015.3
20260504202835 68 283 5.2 9.6 0.00 0.00 0.00 52 1015.3
20260504202315 68 283 6.1 7.8 0.00 0.00 0.00 52 1015.3
20260504201815 69 283 5.2 7.0 0.00 0.00 0.00 51 1015.3
20260504201335 69 260 3.5 5.2 0.00 0.00 0.00 51 1015.5
20260504200816 69 260 7.0 11.3 0.00 0.00 0.00 51 1015.5
20260504200316 69 283 8.7 11.3 0.00 0.00 0.00 51 1015.5
20260504195815 69 283 5.2 7.8 0.00 0.00 0.00 50 1015.4
20260504195335 69 283 3.5 6.1 0.00 0.00 0.00 52 1015.5
20260504194815 69 305 4.3 7.8 0.00 0.00 0.00 53 1015.6
20260504194315 68 260 6.1 9.6 0.00 0.00 0.00 54 1015.7
20260504193815 68 283 4.3 7.0 0.00 0.00 0.00 54 1015.6
20260504193315 67 283 2.6 4.3 0.00 0.00 0.00 55 1015.7
20260504192816 67 260 5.2 7.0 0.00 0.00 0.00 52 1015.8
20260504192335 68 283 2.6 4.3 0.00 0.00 0.00 51 1015.9
20260504191815 68 260 4.3 7.8 0.00 0.00 0.00 52 1015.9
20260504191315 67 283 3.5 7.0 0.00 0.00 0.00 52 1015.8
20260504190815 67 283 4.3 7.0 0.00 0.00 0.00 51 1015.9
20260504190335 67 260 5.2 7.8 0.00 0.00 0.00 53 1015.8
20260504185815 67 283 7.0 9.6 0.00 0.00 0.00 54 1015.8
20260504185315 67 260 5.2 7.0 0.00 0.00 0.00 55 1016.0
20260504184815 67 260 5.2 9.6 0.00 0.00 0.00 55 1016.0
20260504184335 67 260 3.5 5.2 0.00 0.00 0.00 54 1016.0
20260504183815 67 283 6.1 8.7 0.00 0.00 0.00 54 1016.0
20260504183315 67 260 3.5 8.7 0.00 0.00 0.00 53 1015.9
20260504182815 67 260 4.3 7.0 0.00 0.00 0.00 53 1016.0
20260504182317 67 260 4.3 7.8 0.00 0.00 0.00 51 1016.0
20260504181817 67 238 6.1 8.7 0.00 0.00 0.00 55 1016.1
20260504181315 66 305 5.2 7.8 0.00 0.00 0.00 55 1016.1
20260504180817 66 283 4.3 8.7 0.00 0.00 0.00 56 1016.0
20260504180317 66 260 7.0 8.7 0.00 0.00 0.00 56 1016.0
20260504175817 67 260 7.8 13.0 0.00 0.00 0.00 56 1016.1
20260504175316 66 305 2.6 4.3 0.00 0.00 0.00 55 1016.0
20260504174817 66 260 6.1 9.6 0.00 0.00 0.00 56 1016.0
20260504174337 66 260 5.2 8.7 0.00 0.00 0.00 54 1015.9
20260504173817 66 305 4.3 8.7 0.00 0.00 0.00 55 1015.9